Location: Alta
(39.2070°N, 120.8111°W)
Time: 06:49:12
(UTC+00:00)

CZ-4B DEB - Pass Details

Date: 07 December 2023
Orbit: 838 x 858 km, 99.0° (Epoch: 02 March)

Event Time Altitude Azimuth Distance (km) Brightness Sun altitude
Exits shadow 01:29:18 11° 82° (E) 2,435 6.0 -9.5°
Maximum altitude 01:31:22 13° 59° (ENE) 2,278 5.8 -9.8°
Drops below altitude 10° 01:33:48 10° 32° (NNE) 2,500 6.2 -10.3°
Sets 01:37:32 0° 7° (N) 3,442 7.1 -10.9°
